Year,Month,Day,Hour,Minute,Value (Times are PST for temperature in C)
2019,06,21,00,00,16.10
2019,06,21,00,01,16.10
2019,06,21,00,02,16.10
2019,06,21,00,03,16.10
2019,06,21,00,04,16.10
2019,06,21,00,05,16.10
2019,06,21,00,06,16.00
2019,06,21,00,07,16.10
2019,06,21,00,08,16.10
2019,06,21,00,09,16.10
2019,06,21,00,10,16.00
2019,06,21,00,11,16.00
2019,06,21,00,12,16.00
2019,06,21,00,13,16.00
2019,06,21,00,14,16.00
2019,06,21,00,15,16.00
2019,06,21,00,16,16.00
2019,06,21,00,17,16.00
2019,06,21,00,18,16.00
2019,06,21,00,19,16.00
2019,06,21,00,20,16.00
2019,06,21,00,21,15.90
2019,06,21,00,22,15.90
2019,06,21,00,23,15.90
2019,06,21,00,24,15.90
2019,06,21,00,25,15.90
2019,06,21,00,26,15.90
2019,06,21,00,27,15.90
2019,06,21,00,28,15.90
2019,06,21,00,29,15.90
2019,06,21,00,30,15.90
2019,06,21,00,31,15.90
2019,06,21,00,32,15.90
2019,06,21,00,33,15.90
2019,06,21,00,34,15.80
2019,06,21,00,35,15.80
2019,06,21,00,36,15.80
2019,06,21,00,37,15.80
2019,06,21,00,38,15.80
2019,06,21,00,39,15.80
2019,06,21,00,40,15.80
2019,06,21,00,41,15.80
2019,06,21,00,42,15.80
2019,06,21,00,43,15.80
2019,06,21,00,44,15.80
2019,06,21,00,45,15.80
2019,06,21,00,46,15.80
2019,06,21,00,47,15.70
2019,06,21,00,48,15.80
2019,06,21,00,49,15.80
2019,06,21,00,50,15.70
2019,06,21,00,51,15.70
2019,06,21,00,52,15.70
2019,06,21,00,53,15.70
2019,06,21,00,54,15.70
2019,06,21,00,55,15.70
2019,06,21,00,56,15.70
2019,06,21,00,57,15.70
2019,06,21,00,58,15.70
2019,06,21,00,59,15.60
2019,06,21,01,00,15.60
2019,06,21,01,01,15.60
2019,06,21,01,02,15.60
2019,06,21,01,03,15.60
2019,06,21,01,04,15.60
2019,06,21,01,05,15.60
2019,06,21,01,06,15.60
2019,06,21,01,07,15.50
2019,06,21,01,08,15.50
2019,06,21,01,09,15.50
2019,06,21,01,10,15.50
2019,06,21,01,11,15.60
2019,06,21,01,12,15.60
2019,06,21,01,13,15.60
2019,06,21,01,14,15.60
2019,06,21,01,15,15.50
2019,06,21,01,16,15.50
2019,06,21,01,17,15.50
2019,06,21,01,18,15.50
2019,06,21,01,19,15.50
2019,06,21,01,20,15.50
2019,06,21,01,21,15.50
2019,06,21,01,22,15.50
2019,06,21,01,23,15.40
2019,06,21,01,24,15.40
2019,06,21,01,25,15.40
2019,06,21,01,26,15.40
2019,06,21,01,27,15.40
2019,06,21,01,28,15.40
2019,06,21,01,29,15.40
2019,06,21,01,30,15.40
2019,06,21,01,31,15.40
2019,06,21,01,32,15.40
2019,06,21,01,33,15.40
2019,06,21,01,34,15.40
2019,06,21,01,35,15.40
2019,06,21,01,36,15.40
2019,06,21,01,37,15.40
2019,06,21,01,38,15.40
2019,06,21,01,39,15.40
2019,06,21,01,40,15.40
2019,06,21,01,41,15.40
2019,06,21,01,42,15.40
2019,06,21,01,43,15.40
2019,06,21,01,44,15.40
2019,06,21,01,45,15.40
2019,06,21,01,46,15.40
2019,06,21,01,47,15.30
2019,06,21,01,48,15.30
2019,06,21,01,49,15.30
2019,06,21,01,50,15.30
2019,06,21,01,51,15.30
2019,06,21,01,52,15.30
2019,06,21,01,53,15.30
2019,06,21,01,54,15.30
2019,06,21,01,55,15.30
2019,06,21,01,56,15.30
2019,06,21,01,57,15.20
2019,06,21,01,58,15.20
2019,06,21,01,59,15.20
2019,06,21,02,00,15.20
2019,06,21,02,01,15.20
2019,06,21,02,02,15.20
2019,06,21,02,03,15.20
2019,06,21,02,04,15.20
2019,06,21,02,05,15.20
2019,06,21,02,06,15.20
2019,06,21,02,07,15.20
2019,06,21,02,08,15.20
2019,06,21,02,09,15.20
2019,06,21,02,10,15.20
2019,06,21,02,11,15.20
2019,06,21,02,12,15.20
2019,06,21,02,13,15.20
2019,06,21,02,14,15.20
2019,06,21,02,15,15.20
2019,06,21,02,16,15.10
2019,06,21,02,17,15.10
2019,06,21,02,18,15.10
2019,06,21,02,19,15.10
2019,06,21,02,20,15.10
2019,06,21,02,21,15.10
2019,06,21,02,22,15.10
2019,06,21,02,23,15.10
2019,06,21,02,24,15.10
2019,06,21,02,25,15.10
2019,06,21,02,26,15.10
2019,06,21,02,27,15.00
2019,06,21,02,28,15.00
2019,06,21,02,29,15.00
2019,06,21,02,30,15.00
2019,06,21,02,31,15.00
2019,06,21,02,32,14.90
2019,06,21,02,33,14.90
2019,06,21,02,34,14.90
2019,06,21,02,35,14.90
2019,06,21,02,36,14.90
2019,06,21,02,37,14.90
2019,06,21,02,38,14.90
2019,06,21,02,39,14.90
2019,06,21,02,40,14.80
2019,06,21,02,41,14.80
2019,06,21,02,42,14.80
2019,06,21,02,43,14.80
2019,06,21,02,44,14.80
2019,06,21,02,45,14.80
2019,06,21,02,46,14.80
2019,06,21,02,47,14.80
2019,06,21,02,48,14.70
2019,06,21,02,49,14.70
2019,06,21,02,50,14.70
2019,06,21,02,51,14.70
2019,06,21,02,52,14.70
2019,06,21,02,53,14.70
2019,06,21,02,54,14.70
2019,06,21,02,55,14.70
2019,06,21,02,56,14.70
2019,06,21,02,57,14.70
2019,06,21,02,58,14.70
2019,06,21,02,59,14.70
2019,06,21,03,00,14.70
2019,06,21,03,01,14.70
2019,06,21,03,02,14.70
2019,06,21,03,03,14.70
2019,06,21,03,04,14.60
2019,06,21,03,05,14.60
2019,06,21,03,06,14.60
2019,06,21,03,07,14.60
2019,06,21,03,08,14.60
2019,06,21,03,09,14.60
2019,06,21,03,10,14.60
2019,06,21,03,11,14.60
2019,06,21,03,12,14.60
2019,06,21,03,13,14.50
2019,06,21,03,14,14.50
2019,06,21,03,15,14.50
2019,06,21,03,16,14.40
2019,06,21,03,17,14.40
2019,06,21,03,18,14.40
2019,06,21,03,19,14.40
2019,06,21,03,20,14.30
2019,06,21,03,21,14.30
2019,06,21,03,22,14.30
2019,06,21,03,23,14.30
2019,06,21,03,24,14.30
2019,06,21,03,25,14.30
2019,06,21,03,26,14.20
2019,06,21,03,27,14.20
2019,06,21,03,28,14.20
2019,06,21,03,29,14.20
2019,06,21,03,30,14.20
2019,06,21,03,31,14.20
2019,06,21,03,32,14.20
2019,06,21,03,33,14.20
2019,06,21,03,34,14.10
2019,06,21,03,35,14.10
2019,06,21,03,36,14.10
2019,06,21,03,37,14.10
2019,06,21,03,38,14.10
2019,06,21,03,39,14.10
2019,06,21,03,40,14.10
2019,06,21,03,41,14.10
2019,06,21,03,42,14.00
2019,06,21,03,43,14.00
2019,06,21,03,44,14.00
2019,06,21,03,45,14.00
2019,06,21,03,46,13.90
2019,06,21,03,47,13.90
2019,06,21,03,48,13.90
2019,06,21,03,49,13.90
2019,06,21,03,50,13.90
2019,06,21,03,51,13.90
2019,06,21,03,52,13.90
2019,06,21,03,53,13.80
2019,06,21,03,54,13.80
2019,06,21,03,55,13.80
2019,06,21,03,56,13.80
2019,06,21,03,57,13.80
2019,06,21,03,58,13.70
2019,06,21,03,59,13.70
2019,06,21,04,00,13.70
2019,06,21,04,01,13.70
2019,06,21,04,02,13.70
2019,06,21,04,03,13.70
2019,06,21,04,04,13.60
2019,06,21,04,05,13.60
2019,06,21,04,06,13.60
2019,06,21,04,07,13.60
2019,06,21,04,08,13.60
2019,06,21,04,09,13.50
2019,06,21,04,10,13.50
2019,06,21,04,11,13.40
2019,06,21,04,12,13.40
2019,06,21,04,13,13.40
2019,06,21,04,14,13.40
2019,06,21,04,15,13.30
2019,06,21,04,16,13.30
2019,06,21,04,17,13.30
2019,06,21,04,18,13.30
2019,06,21,04,19,13.30
2019,06,21,04,20,13.20
2019,06,21,04,21,13.20
2019,06,21,04,22,13.20
2019,06,21,04,23,13.20
2019,06,21,04,24,13.10
2019,06,21,04,25,13.10
2019,06,21,04,26,13.10
2019,06,21,04,27,13.10
2019,06,21,04,28,13.10
2019,06,21,04,29,13.00
2019,06,21,04,30,13.00
2019,06,21,04,31,13.00
2019,06,21,04,32,13.00
2019,06,21,04,33,13.00
2019,06,21,04,34,13.00
2019,06,21,04,35,13.00
2019,06,21,04,36,12.90
2019,06,21,04,37,12.90
2019,06,21,04,38,12.90
2019,06,21,04,39,12.90
2019,06,21,04,40,12.90
2019,06,21,04,41,12.90
2019,06,21,04,42,12.80
2019,06,21,04,43,12.80
2019,06,21,04,44,12.80
2019,06,21,04,45,12.80
2019,06,21,04,46,12.80
2019,06,21,04,47,12.80
2019,06,21,04,48,12.80
2019,06,21,04,49,12.80
2019,06,21,04,50,12.80
2019,06,21,04,51,12.80
2019,06,21,04,52,12.80
2019,06,21,04,53,12.70
2019,06,21,04,54,12.70
2019,06,21,04,55,12.70
2019,06,21,04,56,12.70
2019,06,21,04,57,12.70
2019,06,21,04,58,12.70
2019,06,21,04,59,12.70
2019,06,21,05,00,12.70
2019,06,21,05,01,12.60
2019,06,21,05,02,12.70
2019,06,21,05,03,12.70
2019,06,21,05,04,12.70
2019,06,21,05,05,12.60
2019,06,21,05,06,12.60
2019,06,21,05,07,12.60
2019,06,21,05,08,12.60
2019,06,21,05,09,12.60
2019,06,21,05,10,12.60
2019,06,21,05,11,12.60
2019,06,21,05,12,12.60
2019,06,21,05,13,12.60
2019,06,21,05,14,12.60
2019,06,21,05,15,12.50
2019,06,21,05,16,12.50
2019,06,21,05,17,12.50
2019,06,21,05,18,12.50
2019,06,21,05,19,12.50
2019,06,21,05,20,12.50
2019,06,21,05,21,12.50
2019,06,21,05,22,12.50
2019,06,21,05,23,12.50
2019,06,21,05,24,12.50
2019,06,21,05,25,12.50
2019,06,21,05,26,12.50
2019,06,21,05,27,12.50
2019,06,21,05,28,12.50
2019,06,21,05,29,12.50
2019,06,21,05,30,12.40
2019,06,21,05,31,12.40
2019,06,21,05,32,12.40
2019,06,21,05,33,12.40
2019,06,21,05,34,12.30
2019,06,21,05,35,12.30
2019,06,21,05,36,12.30
2019,06,21,05,37,12.20
2019,06,21,05,38,12.20
2019,06,21,05,39,12.20
2019,06,21,05,40,12.20
2019,06,21,05,41,12.20
2019,06,21,05,42,12.20
2019,06,21,05,43,12.20
2019,06,21,05,44,12.20
2019,06,21,05,45,12.20
2019,06,21,05,46,12.20
2019,06,21,05,47,12.30
2019,06,21,05,48,12.30
2019,06,21,05,49,12.30
2019,06,21,05,50,12.30
2019,06,21,05,51,12.40
2019,06,21,05,52,12.40
2019,06,21,05,53,12.50
2019,06,21,05,54,12.50
2019,06,21,05,55,12.50
2019,06,21,05,56,12.50
2019,06,21,05,57,12.50
2019,06,21,05,58,12.50
2019,06,21,05,59,12.50
2019,06,21,06,00,12.50
2019,06,21,06,01,12.50
2019,06,21,06,02,12.50
2019,06,21,06,03,12.50
2019,06,21,06,04,12.50
2019,06,21,06,05,12.50
2019,06,21,06,06,12.50
2019,06,21,06,07,12.50
2019,06,21,06,08,12.50
2019,06,21,06,09,12.50
2019,06,21,06,10,12.50
2019,06,21,06,11,12.50
2019,06,21,06,12,12.60
2019,06,21,06,13,12.60
2019,06,21,06,14,12.60
2019,06,21,06,15,12.70
2019,06,21,06,16,12.70
2019,06,21,06,17,12.80
2019,06,21,06,18,12.80
2019,06,21,06,19,12.90
2019,06,21,06,20,12.90
2019,06,21,06,21,13.00
2019,06,21,06,22,13.00
2019,06,21,06,23,13.00
2019,06,21,06,24,13.10
2019,06,21,06,25,13.10
2019,06,21,06,26,13.10
2019,06,21,06,27,13.10
2019,06,21,06,28,13.20
2019,06,21,06,29,13.20
2019,06,21,06,30,13.20
2019,06,21,06,31,13.30
2019,06,21,06,32,13.30
2019,06,21,06,33,13.30
2019,06,21,06,34,13.40
2019,06,21,06,35,13.40
2019,06,21,06,36,13.40
2019,06,21,06,37,13.50
2019,06,21,06,38,13.50
2019,06,21,06,39,13.60
2019,06,21,06,40,13.60
2019,06,21,06,41,13.60
2019,06,21,06,42,13.60
2019,06,21,06,43,13.70
2019,06,21,06,44,13.70
2019,06,21,06,45,13.70
2019,06,21,06,46,13.70
2019,06,21,06,47,13.70
2019,06,21,06,48,13.70
2019,06,21,06,49,13.70
2019,06,21,06,50,13.70
2019,06,21,06,51,13.70
2019,06,21,06,52,13.70
2019,06,21,06,53,13.70
2019,06,21,06,54,13.70
2019,06,21,06,55,13.80
2019,06,21,06,56,13.80
2019,06,21,06,57,13.80
2019,06,21,06,58,13.80
2019,06,21,06,59,13.80
2019,06,21,07,00,13.80
2019,06,21,07,01,13.80
2019,06,21,07,02,13.80
2019,06,21,07,03,13.80
2019,06,21,07,04,13.90
2019,06,21,07,05,13.90
2019,06,21,07,06,13.90
2019,06,21,07,07,14.00
2019,06,21,07,08,14.00
2019,06,21,07,09,14.00
2019,06,21,07,10,14.10
2019,06,21,07,11,14.10
2019,06,21,07,12,14.10
2019,06,21,07,13,14.20
2019,06,21,07,14,14.20
2019,06,21,07,15,14.20
2019,06,21,07,16,14.20
2019,06,21,07,17,14.30
2019,06,21,07,18,14.30
2019,06,21,07,19,14.30
2019,06,21,07,20,14.30
2019,06,21,07,21,14.30
2019,06,21,07,22,14.30
2019,06,21,07,23,14.40
2019,06,21,07,24,14.40
2019,06,21,07,25,14.50
2019,06,21,07,26,14.50
2019,06,21,07,27,14.50
2019,06,21,07,28,14.50
2019,06,21,07,29,14.50
2019,06,21,07,30,14.60
2019,06,21,07,31,14.60
2019,06,21,07,32,14.60
2019,06,21,07,33,14.70
2019,06,21,07,34,14.70
2019,06,21,07,35,14.80
2019,06,21,07,36,14.80
2019,06,21,07,37,14.80
2019,06,21,07,38,14.80
2019,06,21,07,39,14.90
2019,06,21,07,40,14.90
2019,06,21,07,41,14.90
2019,06,21,07,42,14.90
2019,06,21,07,43,14.90
2019,06,21,07,44,15.00
2019,06,21,07,45,15.00
2019,06,21,07,46,15.00
2019,06,21,07,47,15.00
2019,06,21,07,48,15.10
2019,06,21,07,49,15.10
2019,06,21,07,50,15.10
2019,06,21,07,51,15.10
2019,06,21,07,52,15.10
2019,06,21,07,53,15.20
2019,06,21,07,54,15.20
2019,06,21,07,55,15.20
2019,06,21,07,56,15.30
2019,06,21,07,57,15.30
2019,06,21,07,58,15.30
2019,06,21,07,59,15.30
2019,06,21,08,00,15.30
2019,06,21,08,01,15.40
2019,06,21,08,02,15.40
2019,06,21,08,03,15.40
2019,06,21,08,04,15.40
2019,06,21,08,05,15.40
2019,06,21,08,06,15.40
2019,06,21,08,07,15.40
2019,06,21,08,08,15.50
2019,06,21,08,09,15.50
2019,06,21,08,10,15.60
2019,06,21,08,11,15.60
2019,06,21,08,12,15.60
2019,06,21,08,13,15.70
2019,06,21,08,14,15.80
2019,06,21,08,15,15.80
2019,06,21,08,16,15.80
2019,06,21,08,17,15.80
2019,06,21,08,18,15.80
2019,06,21,08,19,15.70
2019,06,21,08,20,15.70
2019,06,21,08,21,15.70
2019,06,21,08,22,15.70
2019,06,21,08,23,15.80
2019,06,21,08,24,15.80
2019,06,21,08,25,15.80
2019,06,21,08,26,15.80
2019,06,21,08,27,15.90
2019,06,21,08,28,15.90
2019,06,21,08,29,15.90
2019,06,21,08,30,16.00
2019,06,21,08,31,16.00
2019,06,21,08,32,16.00
2019,06,21,08,33,16.10
2019,06,21,08,34,16.20
2019,06,21,08,35,16.30
2019,06,21,08,36,16.40
2019,06,21,08,37,16.40
2019,06,21,08,38,16.50
2019,06,21,08,39,16.50
2019,06,21,08,40,16.60
2019,06,21,08,41,16.60
2019,06,21,08,42,16.60
2019,06,21,08,43,16.70
2019,06,21,08,44,16.70
2019,06,21,08,45,16.80
2019,06,21,08,46,16.80
2019,06,21,08,47,16.90
2019,06,21,08,48,16.90
2019,06,21,08,49,16.90
2019,06,21,08,50,16.90
2019,06,21,08,51,16.90
2019,06,21,08,52,16.90
2019,06,21,08,53,16.90
2019,06,21,08,54,16.90
2019,06,21,08,55,16.90
2019,06,21,08,56,17.00
2019,06,21,08,57,17.10
2019,06,21,08,58,17.10
2019,06,21,08,59,17.20
2019,06,21,09,00,17.10
2019,06,21,09,01,17.10
2019,06,21,09,02,17.10
2019,06,21,09,03,17.10
2019,06,21,09,04,17.10
2019,06,21,09,05,17.10
2019,06,21,09,06,17.20
2019,06,21,09,07,17.20
2019,06,21,09,08,17.30
2019,06,21,09,09,17.40
2019,06,21,09,10,17.50
2019,06,21,09,11,17.50
2019,06,21,09,12,17.50
2019,06,21,09,13,17.60
2019,06,21,09,14,17.60
2019,06,21,09,15,17.60
2019,06,21,09,16,17.60
2019,06,21,09,17,17.60
2019,06,21,09,18,17.50
2019,06,21,09,19,17.50
2019,06,21,09,20,17.60
2019,06,21,09,21,17.60
2019,06,21,09,22,17.70
2019,06,21,09,23,17.70
2019,06,21,09,24,17.80
2019,06,21,09,25,17.90
2019,06,21,09,26,17.90
2019,06,21,09,27,17.90
2019,06,21,09,28,18.00
2019,06,21,09,29,18.00
2019,06,21,09,30,18.10
2019,06,21,09,31,18.10
2019,06,21,09,32,18.20
2019,06,21,09,33,18.30
2019,06,21,09,34,18.30
2019,06,21,09,35,18.30
2019,06,21,09,36,18.30
2019,06,21,09,37,18.40
2019,06,21,09,38,18.40
2019,06,21,09,39,18.40
2019,06,21,09,40,18.40
2019,06,21,09,41,18.40
2019,06,21,09,42,18.40
2019,06,21,09,43,18.20
2019,06,21,09,44,18.20
2019,06,21,09,45,18.20
2019,06,21,09,46,18.20
2019,06,21,09,47,18.20
2019,06,21,09,48,18.20
2019,06,21,09,49,18.20
2019,06,21,09,50,18.20
2019,06,21,09,51,18.20
2019,06,21,09,52,18.20
2019,06,21,09,53,18.10
2019,06,21,09,54,18.10
2019,06,21,09,55,18.10
2019,06,21,09,56,18.10
2019,06,21,09,57,18.10
2019,06,21,09,58,18.10
2019,06,21,09,59,18.10
2019,06,21,10,00,18.20
2019,06,21,10,01,18.20
2019,06,21,10,02,18.10
2019,06,21,10,03,18.10
2019,06,21,10,04,18.10
2019,06,21,10,05,18.20
2019,06,21,10,06,18.20
2019,06,21,10,07,18.30
2019,06,21,10,08,18.30
2019,06,21,10,09,18.40
2019,06,21,10,10,18.40
2019,06,21,10,11,18.50
2019,06,21,10,12,18.50
2019,06,21,10,13,18.50
2019,06,21,10,14,18.50
2019,06,21,10,15,18.60
2019,06,21,10,16,18.60
2019,06,21,10,17,18.60
2019,06,21,10,18,18.60
2019,06,21,10,19,18.60
2019,06,21,10,20,18.60
2019,06,21,10,21,18.60
2019,06,21,10,22,18.60
2019,06,21,10,23,18.70
2019,06,21,10,24,18.80
2019,06,21,10,25,18.80
2019,06,21,10,26,18.90
2019,06,21,10,27,18.90
2019,06,21,10,28,19.00
2019,06,21,10,29,19.00
2019,06,21,10,30,19.00
2019,06,21,10,31,19.00
2019,06,21,10,32,19.00
2019,06,21,10,33,18.90
2019,06,21,10,34,19.00
2019,06,21,10,35,19.00
2019,06,21,10,36,19.10
2019,06,21,10,37,19.10
2019,06,21,10,38,19.20
2019,06,21,10,39,19.20
2019,06,21,10,40,19.30
2019,06,21,10,41,19.40
2019,06,21,10,42,19.40
2019,06,21,10,43,19.40
2019,06,21,10,44,19.30
2019,06,21,10,45,19.30
2019,06,21,10,46,19.20
2019,06,21,10,47,19.10
2019,06,21,10,48,19.10
2019,06,21,10,49,19.00
2019,06,21,10,50,19.00
2019,06,21,10,51,19.00
2019,06,21,10,52,19.00
2019,06,21,10,53,18.90
2019,06,21,10,54,19.00
2019,06,21,10,55,19.10
2019,06,21,10,56,19.20
2019,06,21,10,57,19.30
2019,06,21,10,58,19.30
2019,06,21,10,59,19.40
2019,06,21,11,00,19.50
2019,06,21,11,01,19.60
2019,06,21,11,02,19.60
2019,06,21,11,03,19.50
2019,06,21,11,04,19.40
2019,06,21,11,05,19.40
2019,06,21,11,06,19.40
2019,06,21,11,07,19.30
2019,06,21,11,08,19.30
2019,06,21,11,09,19.30
2019,06,21,11,10,19.20
2019,06,21,11,11,19.20
2019,06,21,11,12,19.10
2019,06,21,11,13,19.10
2019,06,21,11,14,19.10
2019,06,21,11,15,19.00
2019,06,21,11,16,18.90
2019,06,21,11,17,18.90
2019,06,21,11,18,18.90
2019,06,21,11,19,19.00
2019,06,21,11,20,19.00
2019,06,21,11,21,19.10
2019,06,21,11,22,19.10
2019,06,21,11,23,19.10
2019,06,21,11,24,19.10
2019,06,21,11,25,19.10
2019,06,21,11,26,19.10
2019,06,21,11,27,19.10
2019,06,21,11,28,19.10
2019,06,21,11,29,19.10
2019,06,21,11,30,19.10
2019,06,21,12,38,21.10
2019,06,21,12,39,21.10
2019,06,21,12,40,21.10
2019,06,21,12,41,21.00
2019,06,21,12,42,21.00
2019,06,21,12,43,21.00
2019,06,21,12,44,21.00
2019,06,21,12,45,21.10
2019,06,21,12,46,21.10
2019,06,21,12,47,21.20
2019,06,21,12,48,21.30
2019,06,21,12,49,21.30
2019,06,21,12,50,21.30
2019,06,21,12,51,21.20
2019,06,21,12,52,21.10
2019,06,21,12,53,21.00
2019,06,21,12,54,20.90
2019,06,21,12,55,20.90
2019,06,21,12,56,20.80
2019,06,21,12,57,20.80
2019,06,21,12,58,20.80
2019,06,21,12,59,20.80
2019,06,21,13,00,20.80
2019,06,21,13,01,20.80
2019,06,21,13,02,20.80
2019,06,21,13,03,20.80
2019,06,21,13,04,20.90
2019,06,21,13,05,20.90
2019,06,21,13,06,20.90
2019,06,21,13,07,20.90
2019,06,21,13,08,21.00
2019,06,21,13,09,20.90
2019,06,21,13,10,20.90
2019,06,21,13,11,20.90
2019,06,21,13,12,20.80
2019,06,21,13,13,20.80
2019,06,21,13,14,20.70
2019,06,21,13,15,20.70
2019,06,21,13,16,20.70
2019,06,21,13,17,20.70
2019,06,21,13,18,20.80
2019,06,21,13,19,20.70
2019,06,21,13,20,20.80
2019,06,21,13,21,20.80
2019,06,21,13,22,20.70
2019,06,21,13,23,20.70
2019,06,21,13,24,20.80
2019,06,21,13,25,20.90
2019,06,21,13,26,20.90
2019,06,21,13,27,21.00
2019,06,21,13,28,20.90
2019,06,21,13,29,20.90
2019,06,21,13,30,21.00
2019,06,21,13,31,21.00
2019,06,21,13,32,21.10
2019,06,21,13,33,21.20
2019,06,21,13,34,21.20
2019,06,21,13,35,21.30
2019,06,21,13,36,21.40
2019,06,21,13,37,21.40
2019,06,21,13,38,21.40
2019,06,21,13,39,21.20
2019,06,21,13,40,21.10
2019,06,21,13,41,21.00
2019,06,21,13,42,20.90
2019,06,21,13,43,21.00
2019,06,21,13,44,21.10
2019,06,21,13,45,21.20
2019,06,21,13,46,21.20
2019,06,21,13,47,21.30
2019,06,21,13,48,21.40
2019,06,21,13,49,21.40
2019,06,21,13,50,21.30
2019,06,21,13,51,21.30
2019,06,21,13,52,21.20
2019,06,21,13,53,21.10
2019,06,21,13,54,21.10
2019,06,21,13,55,21.10
2019,06,21,13,56,21.10
2019,06,21,13,57,21.10
2019,06,21,13,58,21.10
2019,06,21,13,59,21.20
2019,06,21,14,00,21.20
2019,06,21,14,01,21.30
2019,06,21,14,02,21.30
2019,06,21,14,03,21.30
2019,06,21,14,04,21.30
2019,06,21,14,05,21.30
2019,06,21,14,06,21.30
2019,06,21,14,07,21.30
2019,06,21,14,08,21.40
2019,06,21,14,09,21.40
2019,06,21,14,10,21.40
2019,06,21,14,11,21.30
2019,06,21,14,12,21.20
2019,06,21,14,13,21.10
2019,06,21,14,14,21.10
2019,06,21,14,15,21.00
2019,06,21,14,16,20.90
2019,06,21,14,17,20.80
2019,06,21,14,18,20.70
2019,06,21,14,19,20.60
2019,06,21,14,20,20.60
2019,06,21,14,21,20.50
2019,06,21,14,22,20.40
2019,06,21,14,23,20.30
2019,06,21,14,24,20.20
2019,06,21,14,25,20.20
2019,06,21,14,26,20.30
2019,06,21,14,27,20.30
2019,06,21,14,28,20.40
2019,06,21,14,29,20.50
2019,06,21,14,30,20.50
2019,06,21,14,31,20.40
2019,06,21,14,32,20.40
2019,06,21,14,33,20.30
2019,06,21,14,34,20.30
2019,06,21,14,35,20.30
2019,06,21,14,36,20.40
2019,06,21,14,37,20.40
2019,06,21,14,38,20.50
2019,06,21,14,39,20.60
2019,06,21,14,40,20.60
2019,06,21,14,41,20.50
2019,06,21,14,42,20.40
2019,06,21,14,43,20.30
2019,06,21,14,44,20.30
2019,06,21,14,45,20.30
2019,06,21,14,46,20.30
2019,06,21,14,47,20.40
2019,06,21,14,48,20.30
2019,06,21,14,49,20.30
2019,06,21,14,50,20.30
2019,06,21,14,51,20.20
2019,06,21,14,52,20.20
2019,06,21,14,53,20.10
2019,06,21,14,54,20.00
2019,06,21,14,55,19.90
2019,06,21,14,56,19.80
2019,06,21,14,57,19.70
2019,06,21,14,58,19.70
2019,06,21,14,59,19.80
2019,06,21,15,00,19.90
2019,06,21,15,01,19.90
2019,06,21,15,02,20.00
2019,06,21,15,03,20.10
2019,06,21,15,04,20.10
2019,06,21,15,05,20.20
2019,06,21,15,06,20.20
2019,06,21,15,07,20.30
2019,06,21,15,08,20.30
2019,06,21,15,09,20.30
2019,06,21,15,10,20.30
2019,06,21,15,11,20.20
2019,06,21,15,12,20.20
2019,06,21,15,13,20.10
2019,06,21,15,14,20.10
2019,06,21,15,15,20.10
2019,06,21,15,16,20.20
2019,06,21,15,17,20.30
2019,06,21,15,18,20.40
2019,06,21,15,19,20.40
2019,06,21,15,20,20.40
2019,06,21,15,21,20.40
2019,06,21,15,22,20.50
2019,06,21,15,23,20.50
2019,06,21,15,24,20.60
2019,06,21,15,25,20.70
2019,06,21,15,26,20.70
2019,06,21,15,27,20.80
2019,06,21,15,28,20.80
2019,06,21,15,29,20.90
2019,06,21,15,30,20.90
2019,06,21,15,31,20.90
2019,06,21,15,32,20.90
2019,06,21,15,33,21.00
2019,06,21,15,34,21.00
2019,06,21,15,35,21.10
2019,06,21,15,36,21.10
2019,06,21,15,37,21.20
2019,06,21,15,38,21.20
2019,06,21,15,39,21.10
2019,06,21,15,40,21.10
2019,06,21,15,41,21.00
2019,06,21,15,42,21.00
2019,06,21,15,43,20.90
2019,06,21,15,44,20.90
2019,06,21,15,45,20.90
2019,06,21,15,46,21.00
2019,06,21,15,47,20.90
2019,06,21,15,48,20.90
2019,06,21,15,49,20.80
2019,06,21,15,50,20.80
2019,06,21,15,51,20.90
2019,06,21,15,52,21.00
2019,06,21,15,53,21.00
2019,06,21,15,54,21.10
2019,06,21,15,55,21.10
2019,06,21,15,56,21.20
2019,06,21,15,57,21.10
2019,06,21,15,58,21.00
2019,06,21,15,59,20.90
2019,06,21,16,00,20.90
2019,06,21,16,01,20.80
2019,06,21,16,02,20.70
2019,06,21,16,03,20.70
2019,06,21,16,04,20.70
2019,06,21,16,05,20.60
2019,06,21,16,06,20.50
2019,06,21,16,07,20.40
2019,06,21,16,08,20.30
2019,06,21,16,09,20.20
2019,06,21,16,10,20.10
2019,06,21,16,11,20.10
2019,06,21,16,12,20.10
2019,06,21,16,13,20.20
2019,06,21,16,14,20.20
2019,06,21,16,15,20.30
2019,06,21,16,16,20.40
2019,06,21,16,17,20.40
2019,06,21,16,18,20.50
2019,06,21,16,19,20.60
2019,06,21,16,20,20.70
2019,06,21,16,21,20.70
2019,06,21,16,22,20.80
2019,06,21,16,23,20.90
2019,06,21,16,24,20.90
2019,06,21,16,25,21.00
2019,06,21,16,26,21.00
2019,06,21,16,27,20.90
2019,06,21,16,28,20.90
2019,06,21,16,29,20.80
2019,06,21,16,30,20.80
2019,06,21,16,31,20.90
2019,06,21,16,32,20.90
2019,06,21,16,33,20.90
2019,06,21,16,34,20.90
2019,06,21,16,35,20.90
2019,06,21,16,36,20.90
2019,06,21,16,37,20.90
2019,06,21,16,38,21.00
2019,06,21,16,39,21.10
2019,06,21,16,40,21.10
2019,06,21,16,41,21.10
2019,06,21,16,42,21.10
2019,06,21,16,43,21.10
2019,06,21,16,44,21.00
2019,06,21,16,45,21.00
2019,06,21,16,46,20.90
2019,06,21,16,47,20.80
2019,06,21,16,48,20.80
2019,06,21,16,49,20.70
2019,06,21,16,50,20.70
2019,06,21,16,51,20.60
2019,06,21,16,52,20.40
2019,06,21,16,53,20.30
2019,06,21,16,54,20.30
2019,06,21,16,55,20.30
2019,06,21,16,56,20.30
2019,06,21,16,57,20.40
2019,06,21,16,58,20.50
2019,06,21,16,59,20.50
2019,06,21,17,00,20.50
2019,06,21,17,01,20.50
2019,06,21,17,02,20.50
2019,06,21,17,03,20.50
2019,06,21,17,04,20.50
2019,06,21,17,05,20.40
2019,06,21,17,06,20.40
2019,06,21,17,07,20.30
2019,06,21,17,08,20.30
2019,06,21,17,09,20.30
2019,06,21,17,10,20.40
2019,06,21,17,11,20.40
2019,06,21,17,12,20.40
2019,06,21,17,13,20.40
2019,06,21,17,14,20.40
2019,06,21,17,15,20.30
2019,06,21,17,16,20.30
2019,06,21,17,17,20.20
2019,06,21,17,18,20.10
2019,06,21,17,19,20.10
2019,06,21,17,20,20.10
2019,06,21,17,21,20.10
2019,06,21,17,22,20.10
2019,06,21,17,23,20.20
2019,06,21,17,24,20.30
2019,06,21,17,25,20.30
2019,06,21,17,26,20.40
2019,06,21,17,27,20.40
2019,06,21,17,28,20.40
2019,06,21,17,29,20.40
2019,06,21,17,30,20.40
2019,06,21,17,31,20.40
2019,06,21,17,32,20.50
2019,06,21,17,33,20.50
2019,06,21,17,34,20.50
2019,06,21,17,35,20.50
2019,06,21,17,36,20.50
2019,06,21,17,37,20.50
2019,06,21,17,38,20.50
2019,06,21,17,39,20.60
2019,06,21,17,40,20.50
2019,06,21,17,41,20.40
2019,06,21,17,42,20.40
2019,06,21,17,43,20.40
2019,06,21,17,44,20.30
2019,06,21,17,45,20.30
2019,06,21,17,46,20.30
2019,06,21,17,47,20.30
2019,06,21,17,48,20.30
2019,06,21,17,49,20.30
2019,06,21,17,50,20.30
2019,06,21,17,51,20.20
2019,06,21,17,52,20.20
2019,06,21,17,53,20.20
2019,06,21,17,54,20.20
2019,06,21,17,55,20.20
2019,06,21,17,56,20.10
2019,06,21,17,57,20.10
2019,06,21,17,58,20.10
2019,06,21,17,59,20.00
2019,06,21,18,00,20.00
2019,06,21,18,01,20.00
2019,06,21,18,02,20.00
2019,06,21,18,03,20.10
2019,06,21,18,04,20.00
2019,06,21,18,05,20.00
2019,06,21,18,06,20.00
2019,06,21,18,07,19.90
2019,06,21,18,08,19.90
2019,06,21,18,09,19.80
2019,06,21,18,10,19.80
2019,06,21,18,11,19.80
2019,06,21,18,12,19.80
2019,06,21,18,13,19.80
2019,06,21,18,14,19.80
2019,06,21,18,15,19.80
2019,06,21,18,16,19.80
2019,06,21,18,17,19.70
2019,06,21,18,18,19.70
2019,06,21,18,19,19.70
2019,06,21,18,20,19.60
2019,06,21,18,21,19.60
2019,06,21,18,22,19.60
2019,06,21,18,23,19.60
2019,06,21,18,24,19.60
2019,06,21,18,25,19.60
2019,06,21,18,26,19.60